GEFSCGP_prec_meanprecacc_132.txt.gz
Total_Precipitation_Accumulation
0.00 0.00 0.00 0.00 0.01 0.02 0.04 0.04 0.09 0.10 0.12 0.20 0.30 0.50 0.69 0.78 0.87 0.90 0.92 1.03 1.21 1.62 1.94 2.13 2.26 2.34 2.46 2.65 2.87 3.12 3.45 3.60 3.44 3.46 3.42 3.32 2.99 2.85 2.58 2.31 2.05 1.97 1.94 2.10
0.00 0.01 0.01 0.00 0.01 0.03 0.04 0.06 0.10 0.11 0.13 0.21 0.26 0.45 0.65 0.66 0.81 0.87 0.96 1.05 1.13 1.32 1.77 1.94 1.92 2.05 2.18 2.44 2.86 3.18 3.18 3.12 2.98 3.12 3.33 3.50 3.44 3.04 2.52 2.28 2.14 1.90 1.82 1.94
0.01 0.02 0.01 0.01 0.01 0.02 0.07 0.09 0.10 0.10 0.14 0.24 0.32 0.71 0.81 0.70 0.78 0.84 0.91 1.02 1.12 1.24 1.38 1.50 1.51 1.56 1.67 1.95 2.29 2.40 2.28 2.23 2.15 2.21 2.42 2.60 2.84 2.69 2.38 2.12 1.97 1.85 1.80 1.78
0.01 0.01 0.01 0.01 0.02 0.02 0.05 0.05 0.04 0.07 0.17 0.32 0.39 0.80 1.00 1.00 1.03 0.90 0.92 0.95 1.16 1.26 1.21 1.22 1.30 1.34 1.34 1.28 1.27 1.35 1.48 1.52 1.58 1.69 1.90 2.14 2.37 2.33 2.25 2.19 1.92 1.71 1.56 1.52
0.02 0.02 0.02 0.03 0.03 0.03 0.04 0.04 0.05 0.08 0.16 0.34 0.38 0.57 0.95 1.16 1.18 0.96 0.92 0.92 1.06 1.04 0.97 0.98 1.06 1.09 1.07 1.05 1.08 1.09 1.21 1.37 1.46 1.53 1.66 1.85 2.18 2.16 1.98 1.83 1.67 1.58 1.49 1.41
0.03 0.04 0.04 0.04 0.04 0.03 0.04 0.06 0.11 0.15 0.24 0.57 0.49 0.54 0.88 1.08 0.93 0.88 0.82 0.80 0.83 0.81 0.83 0.87 0.88 0.89 0.87 0.87 0.98 1.05 1.06 1.15 1.22 1.26 1.34 1.39 1.55 1.60 1.50 1.43 1.38 1.30 1.22 1.20
0.12 0.10 0.08 0.05 0.05 0.05 0.07 0.13 0.45 0.80 0.95 0.88 0.52 0.61 1.02 0.90 0.75 0.72 0.73 0.76 0.80 0.77 0.69 0.70 0.77 0.79 0.81 0.80 0.85 0.92 0.95 0.98 0.95 0.91 0.87 0.87 0.97 1.10 1.13 1.12 1.12 1.10 0.99 0.93
0.21 0.24 0.16 0.08 0.07 0.09 0.12 0.21 0.57 0.78 0.74 0.73 0.59 0.93 1.14 0.76 0.69 0.64 0.57 0.56 0.55 0.53 0.48 0.48 0.53 0.57 0.61 0.65 0.69 0.73 0.75 0.78 0.80 0.79 0.80 0.75 0.77 0.85 0.94 1.02 0.99 0.95 0.85 0.75
0.14 0.16 0.11 0.08 0.07 0.09 0.19 0.25 0.27 0.45 0.52 0.74 0.84 0.99 0.91 0.69 0.67 0.61 0.59 0.56 0.52 0.47 0.42 0.40 0.40 0.43 0.42 0.44 0.46 0.52 0.57 0.66 0.71 0.73 0.73 0.66 0.68 0.80 0.86 0.92 0.95 0.99 0.98 0.89
0.07 0.09 0.10 0.07 0.09 0.13 0.15 0.17 0.24 0.37 0.51 0.66 0.78 1.01 1.12 1.00 0.88 0.77 0.82 0.72 0.59 0.45 0.37 0.33 0.29 0.27 0.26 0.30 0.37 0.49 0.61 0.67 0.61 0.57 0.54 0.50 0.58 0.76 0.81 0.77 0.78 0.89 0.95 0.95
0.05 0.05 0.09 0.11 0.12 0.13 0.16 0.19 0.25 0.31 0.34 0.45 0.70 0.86 0.66 0.74 0.79 0.81 0.74 0.65 0.53 0.41 0.34 0.30 0.26 0.22 0.21 0.24 0.30 0.41 0.49 0.56 0.54 0.48 0.43 0.41 0.44 0.51 0.59 0.64 0.66 0.73 0.80 0.86
0.04 0.05 0.10 0.16 0.14 0.12 0.14 0.17 0.26 0.40 0.41 0.45 0.59 0.70 0.42 0.45 0.49 0.49 0.43 0.36 0.31 0.27 0.23 0.21 0.21 0.22 0.22 0.24 0.28 0.33 0.37 0.39 0.42 0.41 0.39 0.40 0.40 0.39 0.37 0.42 0.47 0.52 0.58 0.63
0.06 0.09 0.17 0.37 0.39 0.22 0.18 0.15 0.18 0.24 0.31 0.36 0.51 0.59 0.41 0.39 0.42 0.46 0.45 0.41 0.32 0.26 0.23 0.22 0.22 0.22 0.23 0.27 0.31 0.34 0.39 0.40 0.41 0.40 0.39 0.42 0.41 0.39 0.33 0.32 0.35 0.38 0.39 0.39
0.06 0.06 0.13 0.31 0.30 0.20 0.18 0.18 0.21 0.25 0.33 0.33 0.34 0.43 0.51 0.50 0.50 0.46 0.42 0.40 0.35 0.25 0.19 0.20 0.22 0.24 0.24 0.27 0.28 0.28 0.34 0.39 0.44 0.48 0.56 0.56 0.51 0.46 0.39 0.32 0.31 0.30 0.30 0.30
0.05 0.05 0.07 0.09 0.12 0.18 0.19 0.17 0.19 0.21 0.24 0.37 0.31 0.32 0.40 0.42 0.45 0.43 0.35 0.29 0.25 0.21 0.20 0.20 0.23 0.25 0.25 0.26 0.26 0.26 0.29 0.34 0.37 0.43 0.54 0.59 0.54 0.48 0.43 0.35 0.29 0.28 0.27 0.25
0.08 0.07 0.08 0.08 0.14 0.19 0.21 0.19 0.17 0.15 0.14 0.19 0.22 0.26 0.26 0.25 0.30 0.33 0.29 0.26 0.24 0.23 0.20 0.18 0.18 0.18 0.20 0.21 0.20 0.21 0.23 0.25 0.28 0.32 0.38 0.46 0.47 0.44 0.40 0.33 0.28 0.26 0.24 0.25
0.16 0.15 0.12 0.11 0.13 0.19 0.27 0.22 0.16 0.12 0.09 0.14 0.27 0.31 0.23 0.23 0.27 0.29 0.24 0.19 0.18 0.16 0.12 0.11 0.12 0.12 0.11 0.10 0.12 0.17 0.19 0.22 0.28 0.32 0.34 0.40 0.47 0.46 0.38 0.27 0.26 0.28 0.29 0.32
0.16 0.20 0.19 0.19 0.22 0.34 0.24 0.11 0.09 0.09 0.07 0.06 0.15 0.17 0.17 0.19 0.17 0.14 0.11 0.10 0.08 0.07 0.05 0.05 0.05 0.06 0.05 0.05 0.09 0.14 0.18 0.26 0.31 0.35 0.40 0.44 0.48 0.48 0.44 0.38 0.37 0.41 0.44 0.45
0.17 0.23 0.22 0.23 0.29 0.25 0.14 0.11 0.11 0.11 0.10 0.05 0.07 0.10 0.09 0.07 0.09 0.10 0.06 0.03 0.02 0.02 0.02 0.02 0.03 0.04 0.05 0.08 0.13 0.20 0.28 0.36 0.40 0.42 0.44 0.47 0.53 0.60 0.60 0.55 0.50 0.51 0.53 0.50
0.20 0.25 0.30 0.30 0.41 0.32 0.19 0.16 0.14 0.14 0.24 0.10 0.07 0.07 0.06 0.05 0.13 0.15 0.05 0.01 0.01 0.01 0.02 0.03 0.04 0.06 0.10 0.13 0.17 0.25 0.35 0.44 0.48 0.48 0.46 0.48 0.54 0.62 0.69 0.70 0.64 0.60 0.62 0.56
0.37 0.36 0.33 0.35 0.42 0.27 0.18 0.17 0.17 0.29 0.35 0.11 0.05 0.04 0.04 0.07 0.11 0.08 0.03 0.02 0.02 0.02 0.02 0.03 0.07 0.10 0.12 0.13 0.19 0.29 0.39 0.47 0.46 0.45 0.48 0.56 0.63 0.69 0.73 0.80 0.80 0.77 0.72 0.67
0.42 0.47 0.46 0.48 0.53 0.44 0.25 0.19 0.22 0.24 0.16 0.10 0.06 0.04 0.04 0.04 0.03 0.02 0.02 0.02 0.02 0.02 0.02 0.04 0.10 0.14 0.13 0.15 0.23 0.32 0.39 0.41 0.46 0.50 0.56 0.63 0.71 0.68 0.72 0.94 0.99 1.02 0.98 0.84
0.42 0.49 0.57 0.58 0.53 0.37 0.33 0.29 0.27 0.20 0.13 0.09 0.07 0.06 0.05 0.05 0.04 0.03 0.03 0.02 0.02 0.03 0.05 0.07 0.12 0.16 0.20 0.27 0.33 0.41 0.39 0.43 0.52 0.61 0.68 0.68 0.68 0.76 0.86 0.95 0.99 1.00 0.99 0.93
0.36 0.33 0.44 0.54 0.48 0.43 0.33 0.21 0.17 0.14 0.10 0.07 0.05 0.04 0.04 0.04 0.04 0.03 0.03 0.03 0.03 0.04 0.07 0.11 0.17 0.26 0.34 0.42 0.45 0.45 0.46 0.53 0.64 0.73 0.79 0.80 0.79 0.78 0.83 0.96 0.98 0.96 0.93 0.92
0.20 0.20 0.30 0.45 0.45 0.49 0.42 0.22 0.12 0.09 0.07 0.05 0.04 0.03 0.03 0.04 0.04 0.04 0.04 0.04 0.05 0.06 0.10 0.14 0.24 0.34 0.37 0.45 0.55 0.57 0.64 0.76 0.84 0.82 0.80 0.82 0.86 0.94 0.98 0.97 0.99 0.96 0.95 0.84
0.18 0.21 0.31 0.38 0.32 0.37 0.36 0.22 0.14 0.09 0.08 0.06 0.05 0.05 0.05 0.05 0.05 0.04 0.04 0.05 0.06 0.09 0.14 0.20 0.28 0.36 0.41 0.51 0.59 0.64 0.74 0.86 0.98 0.96 0.87 0.87 0.89 0.93 0.98 0.99 0.91 0.79 0.71 0.59

GEFSCGP_prec_meanprecacc_138.txt.gz
Total_Precipitation_Accumulation
0.00 0.00 0.00 0.00 0.01 0.02 0.04 0.05 0.10 0.11 0.14 0.21 0.32 0.52 0.71 0.81 0.92 1.03 1.03 1.11 1.37 1.82 2.11 2.28 2.41 2.56 2.63 2.80 3.00 3.25 3.57 3.74 3.55 3.53 3.48 3.36 3.03 2.88 2.61 2.34 2.07 1.98 1.95 2.11
0.00 0.01 0.01 0.00 0.01 0.03 0.04 0.06 0.10 0.11 0.14 0.22 0.27 0.47 0.66 0.69 0.87 0.97 1.03 1.13 1.24 1.48 1.92 2.09 2.06 2.23 2.34 2.59 2.97 3.29 3.27 3.22 3.07 3.18 3.38 3.53 3.46 3.07 2.55 2.30 2.15 1.91 1.83 1.94
0.01 0.02 0.01 0.01 0.01 0.02 0.07 0.09 0.10 0.11 0.15 0.25 0.33 0.73 0.84 0.73 0.82 0.91 0.98 1.11 1.20 1.36 1.49 1.65 1.65 1.70 1.80 2.09 2.40 2.50 2.36 2.30 2.21 2.26 2.46 2.63 2.86 2.74 2.42 2.14 1.99 1.86 1.81 1.79
0.01 0.01 0.01 0.01 0.02 0.02 0.05 0.05 0.05 0.07 0.17 0.34 0.42 0.83 1.04 1.04 1.08 0.96 0.97 1.01 1.23 1.34 1.32 1.36 1.43 1.46 1.42 1.37 1.39 1.46 1.56 1.60 1.64 1.73 1.93 2.16 2.38 2.37 2.29 2.20 1.93 1.71 1.56 1.52
0.02 0.02 0.02 0.03 0.03 0.03 0.05 0.04 0.05 0.08 0.18 0.36 0.42 0.61 0.99 1.22 1.23 1.01 0.96 0.96 1.11 1.09 1.06 1.11 1.18 1.19 1.16 1.13 1.17 1.21 1.29 1.45 1.54 1.59 1.71 1.87 2.19 2.19 2.01 1.85 1.68 1.58 1.49 1.41
0.03 0.04 0.04 0.04 0.04 0.03 0.05 0.06 0.11 0.17 0.27 0.62 0.54 0.60 0.95 1.14 0.97 0.92 0.85 0.82 0.88 0.85 0.90 0.97 0.97 0.98 0.94 0.94 1.04 1.13 1.14 1.22 1.29 1.34 1.40 1.42 1.57 1.62 1.52 1.44 1.38 1.30 1.22 1.20
0.12 0.10 0.08 0.05 0.05 0.06 0.07 0.13 0.46 0.83 0.99 0.94 0.57 0.68 1.09 0.96 0.79 0.76 0.76 0.78 0.82 0.80 0.74 0.76 0.81 0.83 0.84 0.84 0.89 0.97 1.03 1.05 1.01 0.97 0.93 0.90 0.99 1.12 1.15 1.13 1.13 1.10 0.99 0.93
0.21 0.24 0.16 0.09 0.08 0.09 0.13 0.22 0.60 0.82 0.78 0.79 0.67 1.04 1.24 0.83 0.72 0.66 0.59 0.58 0.57 0.54 0.51 0.51 0.55 0.60 0.63 0.67 0.72 0.77 0.80 0.85 0.86 0.85 0.85 0.78 0.80 0.89 0.96 1.03 0.99 0.95 0.85 0.75
0.14 0.16 0.11 0.08 0.07 0.10 0.21 0.27 0.30 0.49 0.56 0.81 0.97 1.17 1.05 0.75 0.70 0.63 0.62 0.57 0.53 0.48 0.44 0.42 0.43 0.44 0.43 0.45 0.48 0.54 0.61 0.71 0.77 0.79 0.78 0.69 0.71 0.84 0.89 0.93 0.96 0.99 0.98 0.89
0.07 0.09 0.10 0.08 0.10 0.14 0.17 0.20 0.27 0.41 0.56 0.76 0.91 1.15 1.28 1.08 0.92 0.80 0.85 0.73 0.60 0.46 0.38 0.35 0.30 0.28 0.27 0.31 0.38 0.50 0.63 0.71 0.68 0.63 0.59 0.53 0.59 0.78 0.82 0.77 0.79 0.89 0.95 0.95
0.06 0.06 0.10 0.13 0.13 0.16 0.18 0.21 0.28 0.34 0.37 0.53 0.83 0.99 0.77 0.83 0.84 0.85 0.77 0.67 0.54 0.42 0.34 0.31 0.27 0.25 0.24 0.26 0.31 0.42 0.50 0.61 0.62 0.54 0.48 0.44 0.46 0.52 0.60 0.64 0.66 0.73 0.80 0.86
0.07 0.08 0.13 0.18 0.16 0.14 0.16 0.19 0.29 0.44 0.45 0.51 0.67 0.79 0.48 0.53 0.54 0.52 0.48 0.40 0.33 0.28 0.24 0.21 0.21 0.25 0.31 0.38 0.36 0.36 0.39 0.43 0.51 0.46 0.43 0.43 0.42 0.40 0.38 0.42 0.47 0.52 0.58 0.63
0.09 0.12 0.23 0.41 0.43 0.27 0.22 0.18 0.23 0.29 0.36 0.40 0.55 0.66 0.47 0.43 0.45 0.48 0.48 0.44 0.34 0.27 0.23 0.22 0.22 0.23 0.26 0.34 0.42 0.39 0.41 0.43 0.48 0.44 0.42 0.44 0.43 0.40 0.34 0.32 0.35 0.38 0.39 0.39
0.07 0.09 0.18 0.37 0.35 0.27 0.26 0.23 0.25 0.30 0.39 0.38 0.38 0.50 0.58 0.56 0.54 0.49 0.47 0.43 0.37 0.27 0.20 0.21 0.23 0.25 0.26 0.28 0.30 0.30 0.35 0.41 0.46 0.50 0.57 0.57 0.51 0.46 0.39 0.32 0.31 0.30 0.30 0.30
0.07 0.07 0.09 0.12 0.15 0.22 0.24 0.22 0.23 0.24 0.28 0.39 0.33 0.36 0.47 0.48 0.50 0.49 0.43 0.34 0.27 0.24 0.21 0.20 0.23 0.26 0.26 0.27 0.27 0.27 0.30 0.34 0.38 0.43 0.54 0.59 0.54 0.48 0.43 0.35 0.29 0.28 0.27 0.25
0.13 0.11 0.13 0.13 0.17 0.23 0.24 0.21 0.19 0.17 0.16 0.21 0.24 0.30 0.32 0.30 0.34 0.38 0.35 0.33 0.26 0.25 0.23 0.19 0.18 0.18 0.21 0.21 0.20 0.21 0.23 0.25 0.28 0.32 0.38 0.46 0.47 0.44 0.40 0.33 0.28 0.26 0.24 0.25
0.24 0.23 0.19 0.18 0.19 0.24 0.30 0.23 0.17 0.13 0.11 0.17 0.30 0.36 0.30 0.28 0.31 0.32 0.27 0.25 0.22 0.17 0.14 0.12 0.13 0.13 0.12 0.11 0.12 0.17 0.19 0.22 0.28 0.32 0.34 0.40 0.47 0.46 0.38 0.27 0.26 0.28 0.29 0.32
0.20 0.26 0.27 0.27 0.31 0.41 0.28 0.15 0.13 0.13 0.09 0.09 0.19 0.24 0.25 0.23 0.22 0.19 0.17 0.15 0.13 0.09 0.07 0.06 0.06 0.07 0.06 0.06 0.09 0.15 0.19 0.26 0.32 0.36 0.40 0.45 0.48 0.49 0.45 0.38 0.37 0.41 0.44 0.45
0.20 0.28 0.29 0.32 0.40 0.32 0.18 0.16 0.16 0.18 0.16 0.11 0.14 0.17 0.18 0.17 0.17 0.17 0.13 0.12 0.09 0.05 0.05 0.05 0.04 0.05 0.06 0.09 0.14 0.20 0.29 0.37 0.41 0.43 0.44 0.47 0.53 0.60 0.61 0.55 0.50 0.51 0.54 0.51
0.23 0.30 0.38 0.37 0.47 0.38 0.23 0.19 0.18 0.20 0.34 0.26 0.22 0.21 0.18 0.16 0.24 0.24 0.11 0.06 0.06 0.06 0.07 0.06 0.07 0.08 0.12 0.15 0.19 0.27 0.37 0.45 0.49 0.48 0.46 0.48 0.55 0.63 0.70 0.70 0.64 0.60 0.62 0.56
0.45 0.45 0.41 0.44 0.51 0.33 0.21 0.21 0.22 0.39 0.50 0.34 0.33 0.30 0.25 0.25 0.25 0.18 0.09 0.06 0.04 0.05 0.06 0.06 0.09 0.13 0.16 0.18 0.23 0.32 0.41 0.48 0.48 0.46 0.49 0.57 0.63 0.70 0.74 0.80 0.80 0.77 0.72 0.67
0.54 0.60 0.58 0.59 0.67 0.55 0.33 0.27 0.33 0.41 0.36 0.36 0.35 0.35 0.31 0.28 0.25 0.18 0.13 0.07 0.05 0.05 0.05 0.07 0.13 0.17 0.17 0.19 0.27 0.37 0.43 0.46 0.50 0.52 0.58 0.65 0.72 0.69 0.73 0.95 1.00 1.03 0.98 0.84
0.55 0.65 0.74 0.72 0.68 0.50 0.46 0.45 0.47 0.44 0.42 0.40 0.30 0.26 0.24 0.22 0.23 0.21 0.17 0.11 0.07 0.07 0.08 0.11 0.16 0.21 0.28 0.35 0.42 0.49 0.47 0.51 0.59 0.66 0.72 0.72 0.72 0.80 0.89 0.98 1.01 1.02 1.01 0.94
0.46 0.45 0.61 0.72 0.66 0.60 0.49 0.35 0.38 0.48 0.43 0.32 0.23 0.21 0.20 0.17 0.16 0.12 0.10 0.08 0.07 0.07 0.11 0.14 0.21 0.32 0.42 0.50 0.53 0.54 0.55 0.62 0.72 0.80 0.86 0.88 0.86 0.84 0.88 1.01 1.03 1.00 0.95 0.94
0.26 0.27 0.41 0.58 0.60 0.63 0.55 0.35 0.26 0.31 0.28 0.20 0.18 0.17 0.15 0.12 0.09 0.07 0.06 0.06 0.07 0.08 0.13 0.19 0.28 0.39 0.43 0.51 0.62 0.65 0.74 0.85 0.92 0.89 0.88 0.90 0.93 1.00 1.03 1.02 1.02 0.99 0.98 0.86
0.23 0.27 0.39 0.52 0.48 0.51 0.47 0.35 0.28 0.22 0.18 0.15 0.16 0.16 0.12 0.10 0.12 0.09 0.07 0.07 0.09 0.12 0.18 0.26 0.36 0.46 0.53 0.64 0.76 0.81 0.90 1.02 1.12 1.08 0.99 0.98 0.99 1.02 1.06 1.05 0.96 0.83 0.75 0.63

GEFSCGP_prec_meanprecacc_144.txt.gz
Total_Precipitation_Accumulation
0.00 0.00 0.00 0.00 0.01 0.02 0.04 0.05 0.10 0.11 0.14 0.21 0.32 0.52 0.72 0.82 0.94 1.06 1.06 1.14 1.41 1.87 2.21 2.45 2.56 2.71 2.80 2.97 3.17 3.42 3.72 3.87 3.65 3.62 3.58 3.45 3.13 2.96 2.67 2.38 2.09 2.00 1.97 2.12
0.00 0.01 0.01 0.00 0.01 0.03 0.04 0.06 0.10 0.11 0.14 0.22 0.28 0.47 0.67 0.70 0.89 0.99 1.06 1.17 1.29 1.53 2.00 2.23 2.21 2.39 2.51 2.77 3.17 3.46 3.38 3.30 3.15 3.26 3.47 3.61 3.54 3.15 2.61 2.33 2.17 1.93 1.85 1.96
0.01 0.02 0.01 0.01 0.01 0.02 0.07 0.09 0.10 0.11 0.15 0.25 0.34 0.74 0.85 0.75 0.86 0.95 1.01 1.15 1.25 1.41 1.57 1.77 1.78 1.82 1.96 2.25 2.59 2.69 2.50 2.40 2.32 2.36 2.57 2.72 2.95 2.81 2.47 2.18 2.00 1.87 1.82 1.80
0.01 0.01 0.01 0.02 0.02 0.02 0.06 0.05 0.05 0.08 0.18 0.35 0.43 0.84 1.05 1.05 1.11 0.98 1.00 1.05 1.27 1.39 1.38 1.47 1.54 1.55 1.55 1.52 1.55 1.63 1.71 1.73 1.77 1.84 2.03 2.22 2.43 2.41 2.32 2.23 1.95 1.73 1.57 1.53
0.02 0.02 0.02 0.03 0.04 0.03 0.05 0.04 0.05 0.09 0.18 0.37 0.42 0.61 0.99 1.23 1.25 1.02 0.98 0.99 1.15 1.13 1.10 1.17 1.26 1.28 1.27 1.23 1.29 1.33 1.42 1.57 1.65 1.70 1.80 1.93 2.24 2.23 2.05 1.88 1.71 1.60 1.50 1.42
0.03 0.04 0.04 0.04 0.04 0.03 0.05 0.06 0.12 0.17 0.27 0.63 0.54 0.60 0.95 1.15 0.98 0.93 0.86 0.84 0.91 0.87 0.93 1.04 1.06 1.06 1.02 1.02 1.14 1.21 1.23 1.30 1.37 1.42 1.47 1.47 1.60 1.65 1.55 1.46 1.40 1.32 1.23 1.21
0.12 0.10 0.08 0.05 0.05 0.06 0.08 0.14 0.47 0.83 1.00 0.94 0.58 0.68 1.09 0.96 0.79 0.76 0.76 0.78 0.83 0.81 0.77 0.84 0.94 0.89 0.89 0.90 0.96 1.03 1.09 1.10 1.06 1.03 0.97 0.94 1.01 1.13 1.16 1.15 1.14 1.12 1.00 0.94
0.21 0.24 0.16 0.09 0.08 0.09 0.13 0.22 0.60 0.82 0.79 0.79 0.67 1.04 1.25 0.83 0.72 0.66 0.60 0.58 0.57 0.55 0.53 0.56 0.61 0.64 0.66 0.71 0.77 0.81 0.84 0.88 0.88 0.87 0.87 0.80 0.81 0.90 0.97 1.05 1.00 0.97 0.86 0.77
0.14 0.16 0.11 0.08 0.07 0.10 0.21 0.28 0.30 0.49 0.56 0.82 0.97 1.18 1.05 0.75 0.70 0.63 0.62 0.57 0.53 0.48 0.44 0.44 0.46 0.48 0.45 0.48 0.52 0.57 0.63 0.73 0.80 0.81 0.79 0.70 0.72 0.85 0.91 0.96 0.99 1.02 1.00 0.91
0.07 0.09 0.10 0.08 0.10 0.14 0.17 0.21 0.28 0.41 0.57 0.77 0.91 1.15 1.28 1.08 0.92 0.81 0.86 0.73 0.60 0.46 0.38 0.36 0.32 0.31 0.29 0.33 0.41 0.52 0.66 0.74 0.72 0.67 0.62 0.55 0.61 0.80 0.85 0.80 0.82 0.92 0.97 0.96
0.06 0.06 0.10 0.13 0.13 0.16 0.19 0.21 0.28 0.34 0.38 0.54 0.83 0.99 0.77 0.83 0.84 0.85 0.78 0.67 0.54 0.42 0.34 0.31 0.29 0.27 0.26 0.29 0.34 0.44 0.52 0.64 0.67 0.59 0.52 0.48 0.48 0.54 0.63 0.67 0.68 0.75 0.82 0.86
0.07 0.08 0.13 0.18 0.16 0.15 0.17 0.20 0.30 0.45 0.46 0.51 0.68 0.79 0.49 0.54 0.55 0.53 0.48 0.40 0.33 0.29 0.25 0.23 0.24 0.27 0.32 0.40 0.39 0.39 0.41 0.45 0.55 0.53 0.48 0.46 0.45 0.43 0.41 0.45 0.49 0.53 0.60 0.64
0.09 0.12 0.23 0.42 0.43 0.27 0.23 0.19 0.24 0.31 0.37 0.40 0.56 0.67 0.47 0.43 0.46 0.49 0.48 0.45 0.36 0.29 0.25 0.24 0.24 0.25 0.28 0.38 0.47 0.44 0.45 0.46 0.52 0.51 0.49 0.48 0.46 0.43 0.37 0.34 0.36 0.39 0.39 0.39
0.08 0.09 0.18 0.37 0.35 0.27 0.26 0.25 0.27 0.31 0.39 0.38 0.38 0.51 0.58 0.57 0.54 0.50 0.48 0.44 0.38 0.27 0.21 0.21 0.23 0.25 0.27 0.31 0.37 0.41 0.42 0.45 0.50 0.57 0.64 0.60 0.53 0.49 0.41 0.34 0.32 0.30 0.30 0.30
0.07 0.07 0.10 0.13 0.15 0.23 0.25 0.23 0.24 0.25 0.28 0.40 0.33 0.36 0.48 0.49 0.51 0.50 0.44 0.34 0.28 0.24 0.22 0.21 0.23 0.26 0.27 0.28 0.29 0.31 0.37 0.39 0.41 0.49 0.60 0.62 0.55 0.50 0.44 0.37 0.29 0.28 0.28 0.25
0.14 0.12 0.13 0.13 0.17 0.23 0.24 0.21 0.19 0.17 0.17 0.21 0.24 0.30 0.32 0.30 0.35 0.38 0.35 0.34 0.26 0.25 0.23 0.19 0.19 0.18 0.21 0.22 0.20 0.22 0.25 0.27 0.30 0.36 0.43 0.48 0.49 0.45 0.41 0.34 0.28 0.26 0.25 0.26
0.24 0.24 0.20 0.19 0.19 0.24 0.31 0.24 0.18 0.14 0.11 0.17 0.30 0.37 0.31 0.29 0.31 0.33 0.28 0.25 0.22 0.17 0.14 0.13 0.13 0.13 0.12 0.11 0.12 0.17 0.20 0.22 0.29 0.34 0.37 0.43 0.49 0.47 0.38 0.28 0.27 0.28 0.29 0.32
0.20 0.26 0.28 0.27 0.32 0.42 0.28 0.15 0.14 0.13 0.10 0.09 0.19 0.24 0.26 0.24 0.23 0.20 0.18 0.16 0.14 0.10 0.08 0.07 0.06 0.07 0.07 0.07 0.10 0.15 0.19 0.26 0.32 0.37 0.42 0.46 0.49 0.50 0.46 0.39 0.38 0.41 0.44 0.45
0.20 0.28 0.30 0.33 0.41 0.33 0.19 0.17 0.17 0.19 0.18 0.12 0.15 0.18 0.19 0.19 0.19 0.19 0.15 0.14 0.12 0.07 0.07 0.07 0.06 0.06 0.08 0.11 0.15 0.22 0.30 0.38 0.41 0.43 0.45 0.48 0.54 0.62 0.63 0.57 0.51 0.51 0.54 0.51
0.24 0.31 0.39 0.39 0.49 0.40 0.25 0.21 0.20 0.22 0.37 0.27 0.23 0.22 0.19 0.17 0.26 0.27 0.13 0.08 0.08 0.09 0.09 0.08 0.09 0.10 0.13 0.16 0.21 0.30 0.39 0.47 0.51 0.50 0.47 0.50 0.56 0.65 0.72 0.72 0.65 0.60 0.62 0.56
0.46 0.46 0.43 0.46 0.54 0.36 0.24 0.23 0.25 0.42 0.52 0.36 0.34 0.31 0.26 0.27 0.27 0.20 0.12 0.08 0.07 0.08 0.09 0.09 0.12 0.15 0.18 0.20 0.26 0.35 0.45 0.51 0.51 0.50 0.53 0.60 0.67 0.73 0.77 0.83 0.83 0.79 0.72 0.67
0.55 0.62 0.60 0.61 0.69 0.59 0.37 0.31 0.38 0.45 0.39 0.38 0.37 0.38 0.34 0.31 0.28 0.22 0.17 0.12 0.09 0.07 0.08 0.10 0.16 0.20 0.21 0.23 0.31 0.41 0.47 0.51 0.56 0.59 0.65 0.70 0.77 0.75 0.78 0.99 1.03 1.05 0.99 0.85
0.57 0.67 0.77 0.75 0.71 0.53 0.50 0.51 0.52 0.49 0.46 0.44 0.33 0.29 0.28 0.27 0.26 0.29 0.27 0.19 0.15 0.13 0.13 0.15 0.20 0.26 0.33 0.39 0.47 0.56 0.54 0.60 0.69 0.75 0.81 0.80 0.79 0.85 0.94 1.02 1.05 1.05 1.03 0.96
0.47 0.48 0.66 0.77 0.71 0.64 0.53 0.39 0.43 0.53 0.48 0.36 0.27 0.25 0.24 0.22 0.20 0.19 0.18 0.16 0.15 0.15 0.18 0.19 0.24 0.35 0.46 0.55 0.58 0.60 0.62 0.70 0.82 0.90 0.95 0.97 0.95 0.92 0.94 1.07 1.08 1.05 0.99 0.97
0.27 0.29 0.45 0.63 0.65 0.67 0.59 0.38 0.30 0.35 0.31 0.23 0.22 0.23 0.22 0.18 0.14 0.11 0.09 0.10 0.12 0.13 0.17 0.24 0.32 0.42 0.46 0.55 0.67 0.72 0.82 0.96 1.02 0.99 0.99 1.02 1.05 1.10 1.12 1.10 1.09 1.05 1.03 0.92
0.25 0.29 0.41 0.55 0.51 0.55 0.51 0.39 0.31 0.26 0.22 0.20 0.22 0.25 0.21 0.17 0.17 0.15 0.12 0.12 0.13 0.16 0.22 0.29 0.39 0.50 0.57 0.69 0.82 0.89 1.00 1.15 1.28 1.22 1.11 1.11 1.12 1.15 1.19 1.17 1.08 0.95 0.86 0.74

GEFSCGP_prec_meanprecacc_150.txt.gz
Total_Precipitation_Accumulation
0.00 0.00 0.00 0.00 0.01 0.02 0.04 0.05 0.10 0.11 0.14 0.21 0.32 0.52 0.72 0.82 0.94 1.06 1.06 1.15 1.42 1.89 2.23 2.49 2.63 2.80 2.91 3.10 3.32 3.58 3.90 4.02 3.74 3.69 3.66 3.55 3.21 3.04 2.74 2.45 2.14 2.04 2.02 2.18
0.00 0.01 0.01 0.00 0.01 0.03 0.04 0.06 0.10 0.11 0.14 0.22 0.28 0.47 0.67 0.70 0.89 1.00 1.06 1.17 1.30 1.55 2.03 2.27 2.27 2.45 2.59 2.87 3.31 3.62 3.59 3.50 3.26 3.32 3.52 3.69 3.63 3.23 2.68 2.39 2.22 1.98 1.90 2.01
0.01 0.02 0.01 0.01 0.01 0.02 0.07 0.09 0.10 0.11 0.15 0.25 0.34 0.74 0.85 0.75 0.86 0.95 1.02 1.16 1.26 1.43 1.59 1.83 1.84 1.87 2.02 2.33 2.70 2.83 2.69 2.59 2.46 2.45 2.64 2.79 3.01 2.87 2.53 2.23 2.05 1.93 1.86 1.84
0.01 0.01 0.01 0.02 0.02 0.02 0.06 0.05 0.05 0.08 0.18 0.35 0.43 0.84 1.05 1.05 1.11 0.99 1.01 1.05 1.28 1.40 1.41 1.52 1.60 1.61 1.61 1.59 1.67 1.78 1.86 1.88 1.91 1.94 2.10 2.29 2.49 2.46 2.36 2.27 2.00 1.77 1.61 1.56
0.02 0.02 0.02 0.03 0.04 0.03 0.05 0.04 0.05 0.09 0.18 0.37 0.42 0.61 0.99 1.23 1.25 1.02 0.98 0.99 1.15 1.14 1.15 1.23 1.33 1.34 1.33 1.30 1.39 1.45 1.56 1.69 1.78 1.81 1.89 2.03 2.31 2.30 2.10 1.93 1.76 1.65 1.54 1.45
0.03 0.04 0.04 0.04 0.04 0.03 0.05 0.06 0.12 0.17 0.27 0.63 0.54 0.60 0.95 1.15 0.98 0.93 0.86 0.84 0.91 0.89 0.95 1.06 1.12 1.13 1.09 1.09 1.22 1.30 1.33 1.40 1.47 1.53 1.57 1.56 1.67 1.70 1.59 1.50 1.44 1.36 1.27 1.23
0.12 0.10 0.08 0.05 0.05 0.06 0.08 0.14 0.47 0.83 1.00 0.95 0.58 0.68 1.09 0.96 0.79 0.76 0.76 0.79 0.83 0.82 0.77 0.85 0.97 0.94 0.94 0.96 1.03 1.10 1.15 1.17 1.13 1.11 1.05 1.01 1.08 1.18 1.20 1.18 1.17 1.14 1.03 0.96
0.21 0.24 0.16 0.09 0.08 0.09 0.13 0.22 0.60 0.83 0.79 0.79 0.67 1.04 1.25 0.83 0.72 0.66 0.60 0.59 0.57 0.55 0.53 0.57 0.63 0.66 0.68 0.75 0.82 0.87 0.90 0.92 0.92 0.91 0.91 0.84 0.86 0.95 1.02 1.09 1.04 0.99 0.88 0.79
0.14 0.16 0.11 0.08 0.07 0.10 0.21 0.28 0.30 0.49 0.56 0.82 0.97 1.18 1.05 0.75 0.70 0.63 0.62 0.57 0.54 0.48 0.45 0.46 0.48 0.49 0.47 0.50 0.55 0.60 0.66 0.77 0.82 0.84 0.83 0.74 0.75 0.88 0.95 0.99 1.02 1.05 1.03 0.93
0.07 0.09 0.10 0.08 0.10 0.14 0.17 0.21 0.28 0.41 0.57 0.77 0.91 1.16 1.29 1.08 0.92 0.81 0.86 0.73 0.60 0.46 0.39 0.37 0.33 0.32 0.30 0.35 0.44 0.54 0.68 0.76 0.74 0.70 0.64 0.56 0.63 0.82 0.89 0.84 0.85 0.96 1.00 0.99
0.06 0.06 0.10 0.13 0.13 0.16 0.19 0.22 0.28 0.35 0.39 0.55 0.84 0.99 0.77 0.83 0.84 0.85 0.78 0.67 0.54 0.42 0.34 0.32 0.29 0.27 0.27 0.30 0.36 0.46 0.54 0.66 0.70 0.62 0.54 0.49 0.49 0.57 0.66 0.70 0.71 0.79 0.85 0.89
0.08 0.08 0.13 0.18 0.16 0.15 0.17 0.20 0.30 0.45 0.47 0.52 0.68 0.79 0.49 0.54 0.55 0.53 0.48 0.40 0.33 0.29 0.25 0.23 0.24 0.28 0.33 0.41 0.40 0.40 0.41 0.46 0.56 0.55 0.51 0.49 0.47 0.45 0.44 0.48 0.52 0.57 0.63 0.67
0.10 0.13 0.23 0.43 0.44 0.27 0.23 0.19 0.24 0.31 0.37 0.41 0.56 0.67 0.47 0.43 0.46 0.49 0.49 0.45 0.36 0.29 0.25 0.24 0.25 0.26 0.29 0.39 0.48 0.45 0.45 0.46 0.52 0.53 0.51 0.50 0.48 0.45 0.38 0.36 0.39 0.41 0.42 0.42
0.08 0.10 0.18 0.38 0.36 0.28 0.27 0.25 0.27 0.31 0.40 0.39 0.39 0.51 0.59 0.57 0.54 0.50 0.48 0.44 0.38 0.27 0.21 0.21 0.24 0.26 0.28 0.33 0.38 0.42 0.43 0.46 0.52 0.59 0.66 0.62 0.55 0.50 0.43 0.36 0.34 0.32 0.32 0.32
0.08 0.08 0.10 0.13 0.15 0.23 0.25 0.23 0.24 0.26 0.28 0.40 0.33 0.37 0.48 0.49 0.51 0.50 0.44 0.34 0.28 0.24 0.22 0.21 0.24 0.27 0.28 0.30 0.31 0.32 0.40 0.45 0.45 0.52 0.63 0.64 0.57 0.51 0.46 0.38 0.31 0.30 0.30 0.27
0.14 0.12 0.13 0.13 0.17 0.23 0.24 0.21 0.19 0.17 0.17 0.21 0.25 0.31 0.32 0.30 0.35 0.39 0.35 0.34 0.26 0.25 0.23 0.20 0.19 0.19 0.21 0.23 0.22 0.23 0.26 0.32 0.36 0.40 0.47 0.51 0.51 0.47 0.42 0.35 0.30 0.28 0.27 0.27
0.25 0.24 0.20 0.19 0.20 0.24 0.31 0.24 0.18 0.14 0.11 0.18 0.30 0.37 0.31 0.29 0.31 0.33 0.28 0.25 0.22 0.17 0.14 0.13 0.13 0.14 0.13 0.11 0.13 0.18 0.20 0.24 0.33 0.40 0.41 0.45 0.51 0.49 0.40 0.30 0.28 0.29 0.31 0.34
0.22 0.28 0.29 0.28 0.33 0.43 0.29 0.16 0.14 0.14 0.10 0.10 0.19 0.24 0.26 0.24 0.23 0.20 0.18 0.16 0.14 0.10 0.08 0.07 0.07 0.07 0.07 0.08 0.11 0.16 0.19 0.27 0.33 0.41 0.46 0.49 0.51 0.51 0.47 0.40 0.39 0.43 0.45 0.46
0.21 0.30 0.31 0.35 0.42 0.34 0.19 0.17 0.18 0.21 0.19 0.13 0.15 0.18 0.19 0.19 0.19 0.19 0.15 0.14 0.12 0.07 0.07 0.07 0.06 0.06 0.08 0.11 0.16 0.22 0.30 0.38 0.42 0.46 0.48 0.50 0.55 0.63 0.63 0.58 0.52 0.52 0.55 0.52
0.25 0.32 0.41 0.40 0.51 0.42 0.26 0.22 0.20 0.24 0.41 0.29 0.24 0.23 0.19 0.18 0.28 0.28 0.14 0.08 0.08 0.09 0.09 0.09 0.09 0.11 0.14 0.17 0.21 0.30 0.40 0.48 0.53 0.52 0.49 0.51 0.57 0.66 0.73 0.73 0.66 0.61 0.63 0.56
0.48 0.48 0.45 0.49 0.56 0.39 0.26 0.24 0.27 0.47 0.57 0.37 0.35 0.32 0.27 0.28 0.28 0.21 0.13 0.09 0.07 0.08 0.09 0.09 0.12 0.16 0.19 0.21 0.26 0.36 0.45 0.52 0.53 0.53 0.56 0.63 0.69 0.75 0.79 0.85 0.84 0.80 0.73 0.68
0.58 0.65 0.63 0.65 0.72 0.62 0.38 0.32 0.43 0.50 0.42 0.40 0.38 0.38 0.35 0.32 0.28 0.23 0.19 0.13 0.10 0.08 0.08 0.10 0.16 0.21 0.22 0.23 0.32 0.42 0.48 0.52 0.59 0.62 0.67 0.73 0.80 0.78 0.81 1.02 1.05 1.07 1.01 0.86
0.60 0.71 0.81 0.78 0.74 0.55 0.51 0.52 0.56 0.53 0.48 0.45 0.34 0.30 0.29 0.28 0.27 0.29 0.27 0.20 0.16 0.13 0.14 0.15 0.21 0.27 0.34 0.41 0.48 0.57 0.56 0.62 0.71 0.77 0.83 0.82 0.82 0.88 0.97 1.06 1.09 1.09 1.06 0.98
0.49 0.49 0.69 0.80 0.74 0.67 0.55 0.41 0.45 0.56 0.49 0.37 0.27 0.25 0.25 0.24 0.21 0.20 0.19 0.18 0.16 0.16 0.19 0.21 0.25 0.36 0.47 0.56 0.59 0.61 0.64 0.72 0.84 0.92 0.98 1.00 0.99 0.96 0.98 1.11 1.13 1.09 1.04 1.01
0.28 0.32 0.49 0.67 0.70 0.73 0.64 0.41 0.31 0.36 0.32 0.24 0.23 0.24 0.23 0.19 0.15 0.13 0.12 0.12 0.14 0.16 0.21 0.27 0.35 0.44 0.47 0.57 0.69 0.74 0.84 0.99 1.05 1.02 1.02 1.06 1.09 1.14 1.16 1.15 1.14 1.11 1.09 0.98
0.26 0.31 0.45 0.60 0.55 0.60 0.57 0.43 0.33 0.28 0.25 0.22 0.25 0.28 0.23 0.19 0.19 0.17 0.14 0.14 0.15 0.17 0.24 0.32 0.42 0.52 0.59 0.71 0.85 0.92 1.03 1.18 1.31 1.25 1.14 1.14 1.15 1.19 1.23 1.23 1.14 1.03 0.94 0.82

GEFSCGP_prec_meanprecacc_156.txt.gz
Total_Precipitation_Accumulation
0.00 0.00 0.00 0.00 0.01 0.02 0.04 0.05 0.10 0.11 0.14 0.21 0.32 0.52 0.72 0.83 0.95 1.06 1.06 1.15 1.43 1.90 2.27 2.52 2.67 2.84 2.97 3.16 3.40 3.66 4.01 4.14 3.89 3.82 3.75 3.62 3.28 3.11 2.81 2.51 2.22 2.10 2.06 2.22
0.00 0.01 0.01 0.00 0.01 0.03 0.04 0.06 0.10 0.11 0.15 0.22 0.28 0.47 0.68 0.72 0.91 1.00 1.06 1.17 1.30 1.57 2.06 2.29 2.30 2.51 2.64 2.92 3.39 3.70 3.69 3.61 3.38 3.43 3.61 3.76 3.70 3.29 2.75 2.46 2.33 2.05 1.95 2.05
0.01 0.02 0.01 0.01 0.01 0.02 0.07 0.09 0.10 0.11 0.15 0.25 0.34 0.74 0.87 0.77 0.88 0.96 1.02 1.16 1.27 1.44 1.62 1.85 1.87 1.92 2.09 2.39 2.78 2.91 2.78 2.69 2.58 2.57 2.75 2.89 3.10 2.96 2.63 2.32 2.15 2.01 1.92 1.87
0.01 0.01 0.01 0.02 0.02 0.02 0.06 0.05 0.05 0.08 0.18 0.35 0.43 0.85 1.07 1.07 1.13 1.00 1.01 1.06 1.29 1.41 1.46 1.55 1.63 1.65 1.66 1.65 1.76 1.88 1.96 1.99 2.04 2.07 2.21 2.37 2.55 2.53 2.44 2.35 2.08 1.85 1.67 1.60
0.02 0.02 0.02 0.03 0.04 0.03 0.05 0.04 0.05 0.09 0.18 0.37 0.43 0.62 1.01 1.25 1.29 1.07 1.01 1.01 1.16 1.15 1.17 1.25 1.34 1.37 1.37 1.36 1.47 1.56 1.68 1.82 1.95 1.98 2.02 2.14 2.41 2.38 2.19 2.02 1.85 1.73 1.60 1.49
0.03 0.04 0.04 0.04 0.04 0.03 0.05 0.06 0.12 0.17 0.28 0.64 0.55 0.61 0.96 1.17 1.03 1.00 0.90 0.85 0.91 0.89 0.97 1.08 1.16 1.19 1.17 1.18 1.31 1.40 1.47 1.54 1.64 1.72 1.73 1.69 1.77 1.79 1.68 1.60 1.54 1.43 1.32 1.28
0.12 0.10 0.08 0.05 0.05 0.06 0.08 0.14 0.47 0.87 1.04 1.00 0.60 0.68 1.10 0.97 0.80 0.78 0.78 0.81 0.83 0.82 0.78 0.87 1.03 1.02 1.03 1.05 1.11 1.18 1.25 1.27 1.26 1.28 1.19 1.12 1.18 1.31 1.31 1.28 1.27 1.22 1.08 1.00
0.21 0.24 0.16 0.09 0.08 0.09 0.13 0.22 0.61 0.88 0.88 0.86 0.71 1.06 1.25 0.84 0.73 0.68 0.60 0.59 0.58 0.55 0.54 0.60 0.69 0.74 0.76 0.83 0.90 0.96 0.99 1.01 1.02 1.04 1.04 0.93 0.94 1.03 1.10 1.19 1.12 1.07 0.94 0.84
0.14 0.16 0.11 0.08 0.07 0.10 0.21 0.28 0.30 0.50 0.58 0.86 1.01 1.22 1.07 0.77 0.73 0.67 0.66 0.59 0.54 0.48 0.45 0.48 0.52 0.54 0.51 0.56 0.63 0.68 0.74 0.84 0.91 0.93 0.92 0.82 0.81 0.93 1.01 1.06 1.09 1.11 1.07 0.98
0.07 0.09 0.11 0.08 0.10 0.14 0.17 0.21 0.28 0.42 0.60 0.82 0.97 1.23 1.37 1.16 0.96 0.83 0.88 0.74 0.61 0.47 0.39 0.38 0.36 0.35 0.33 0.38 0.49 0.60 0.75 0.83 0.81 0.76 0.69 0.61 0.68 0.87 0.95 0.90 0.90 1.01 1.05 1.03
0.06 0.07 0.10 0.13 0.13 0.16 0.19 0.22 0.29 0.35 0.40 0.59 0.92 1.10 0.89 0.95 0.91 0.87 0.78 0.68 0.55 0.42 0.35 0.32 0.31 0.30 0.29 0.32 0.39 0.50 0.59 0.73 0.76 0.67 0.60 0.55 0.54 0.61 0.71 0.76 0.76 0.83 0.89 0.94
0.08 0.08 0.14 0.19 0.16 0.15 0.17 0.20 0.31 0.47 0.49 0.55 0.74 0.91 0.59 0.67 0.65 0.56 0.49 0.40 0.33 0.29 0.25 0.23 0.25 0.29 0.35 0.42 0.42 0.43 0.45 0.51 0.61 0.61 0.57 0.55 0.53 0.50 0.47 0.51 0.56 0.60 0.66 0.70
0.10 0.13 0.25 0.45 0.47 0.28 0.23 0.20 0.24 0.31 0.39 0.44 0.63 0.79 0.60 0.53 0.53 0.52 0.49 0.45 0.36 0.29 0.25 0.25 0.26 0.27 0.31 0.40 0.49 0.46 0.47 0.49 0.57 0.58 0.57 0.57 0.55 0.51 0.43 0.40 0.42 0.44 0.44 0.44
0.08 0.10 0.20 0.42 0.40 0.32 0.29 0.26 0.27 0.32 0.42 0.42 0.45 0.64 0.70 0.64 0.59 0.53 0.49 0.44 0.38 0.27 0.22 0.23 0.27 0.29 0.30 0.34 0.39 0.42 0.44 0.48 0.55 0.62 0.71 0.68 0.59 0.54 0.47 0.39 0.37 0.35 0.34 0.34
0.08 0.08 0.10 0.13 0.18 0.26 0.30 0.25 0.25 0.26 0.28 0.41 0.36 0.46 0.63 0.58 0.57 0.52 0.45 0.35 0.28 0.25 0.23 0.23 0.28 0.31 0.32 0.33 0.33 0.34 0.40 0.46 0.48 0.57 0.67 0.68 0.62 0.55 0.50 0.42 0.34 0.32 0.32 0.29
0.15 0.13 0.14 0.14 0.19 0.25 0.28 0.25 0.20 0.18 0.17 0.22 0.26 0.39 0.42 0.36 0.40 0.41 0.36 0.34 0.27 0.26 0.24 0.22 0.22 0.24 0.29 0.28 0.26 0.27 0.30 0.35 0.40 0.45 0.51 0.56 0.56 0.51 0.45 0.38 0.33 0.30 0.29 0.30
0.26 0.25 0.21 0.20 0.22 0.28 0.34 0.27 0.20 0.15 0.12 0.20 0.35 0.48 0.40 0.35 0.37 0.34 0.28 0.25 0.22 0.18 0.15 0.14 0.15 0.17 0.19 0.17 0.17 0.22 0.25 0.27 0.35 0.43 0.45 0.50 0.55 0.53 0.43 0.33 0.31 0.32 0.34 0.37
0.22 0.30 0.31 0.30 0.37 0.49 0.32 0.17 0.16 0.16 0.12 0.12 0.23 0.34 0.36 0.31 0.26 0.21 0.18 0.16 0.15 0.10 0.09 0.08 0.07 0.09 0.10 0.11 0.14 0.18 0.22 0.30 0.35 0.44 0.49 0.53 0.55 0.55 0.51 0.44 0.43 0.46 0.48 0.49
0.22 0.31 0.34 0.38 0.48 0.41 0.23 0.19 0.19 0.22 0.21 0.14 0.19 0.25 0.23 0.22 0.21 0.22 0.16 0.14 0.12 0.08 0.08 0.08 0.07 0.07 0.09 0.13 0.18 0.25 0.33 0.41 0.45 0.48 0.51 0.54 0.60 0.67 0.67 0.61 0.55 0.55 0.57 0.54
0.26 0.33 0.44 0.45 0.59 0.53 0.35 0.25 0.22 0.26 0.45 0.31 0.26 0.25 0.21 0.21 0.33 0.36 0.18 0.10 0.08 0.09 0.10 0.09 0.10 0.11 0.15 0.19 0.25 0.35 0.45 0.53 0.58 0.56 0.54 0.58 0.63 0.71 0.78 0.76 0.70 0.64 0.66 0.58
0.54 0.51 0.48 0.55 0.65 0.49 0.33 0.27 0.31 0.54 0.67 0.41 0.36 0.34 0.29 0.30 0.31 0.26 0.15 0.10 0.07 0.08 0.10 0.10 0.13 0.17 0.20 0.22 0.29 0.41 0.51 0.58 0.63 0.61 0.62 0.71 0.77 0.83 0.87 0.92 0.89 0.83 0.76 0.69
0.65 0.70 0.69 0.73 0.83 0.75 0.46 0.37 0.50 0.59 0.48 0.44 0.40 0.39 0.36 0.33 0.29 0.23 0.19 0.14 0.10 0.08 0.09 0.11 0.17 0.22 0.23 0.25 0.35 0.47 0.54 0.59 0.67 0.70 0.75 0.82 0.92 0.88 0.90 1.11 1.12 1.12 1.05 0.89
0.68 0.78 0.87 0.86 0.84 0.64 0.59 0.61 0.62 0.59 0.52 0.48 0.37 0.32 0.30 0.29 0.28 0.30 0.28 0.20 0.16 0.14 0.14 0.16 0.22 0.28 0.35 0.43 0.52 0.61 0.61 0.68 0.78 0.86 0.93 0.93 0.95 1.01 1.08 1.16 1.18 1.16 1.14 1.05
0.58 0.54 0.74 0.88 0.81 0.73 0.62 0.47 0.51 0.63 0.53 0.38 0.29 0.28 0.28 0.26 0.23 0.22 0.21 0.20 0.18 0.18 0.21 0.22 0.26 0.38 0.50 0.60 0.64 0.65 0.69 0.78 0.90 1.01 1.09 1.13 1.12 1.08 1.11 1.24 1.24 1.19 1.13 1.10
0.36 0.38 0.57 0.77 0.79 0.82 0.72 0.45 0.33 0.38 0.33 0.25 0.27 0.27 0.26 0.22 0.18 0.16 0.15 0.15 0.16 0.18 0.23 0.29 0.37 0.46 0.50 0.62 0.75 0.79 0.89 1.04 1.11 1.10 1.11 1.17 1.23 1.29 1.30 1.28 1.26 1.22 1.20 1.08
0.32 0.37 0.54 0.69 0.63 0.67 0.64 0.47 0.35 0.29 0.26 0.23 0.29 0.30 0.25 0.22 0.22 0.20 0.17 0.17 0.17 0.20 0.26 0.34 0.45 0.56 0.63 0.77 0.92 0.99 1.11 1.26 1.39 1.35 1.24 1.27 1.31 1.36 1.39 1.37 1.28 1.15 1.05 0.93